Manning, SC

10:46 AM EST on November 23, 2017 (GMT -0500)
Santee Cooper Regional

Weather History for KMNI - December, 2013

Change the Weather History Date:

Saturday, December 7, 2013

  Actual Average (KCKI) Record (KCKI)
Temperature  
Mean Temperature 56 °F -  
Max Temperature 69 °F 61 °F 77 °F (2011)
Min Temperature 44 °F 31 °F 15 °F (2010)
Degree Days  
Heating Degree Days 8    
Growing Degree Days 6 (Base 50)    
Moisture  
Dew Point 56 °F    
Average Humidity 99    
Maximum Humidity 100    
Minimum Humidity 88    
Precipitation  
Precipitation 0.38 in - - ()
Sea Level Pressure  
Sea Level Pressure 30.21 in    
Wind  
Wind Speed 5 mph (NE)    
Max Wind Speed 18 mph    
Max Gust Speed 23 mph    
Visibility 8 miles    
Events      
Averages and records for this station are not official NWS values.
T = Trace of Precipitation, MM = Missing Value Source: NWS Daily Summary

Daily Weather History Graph

Daily Weather History Graph

Search for Another Location

Airport or City:

Trip Planner

Search our weather history database for the weather conditions in past years. The results will help you decide how hot, cold, wet, or windy it might be!

Date:

Astronomy

Dec. 07, 2013 Rise Set
Actual Time 7:12 AM EST 5:12 PM EST
Civil Twilight 6:44 AM EST 5:39 PM EST
Nautical Twilight 6:13 AM EST 6:10 PM EST
Astronomical Twilight 5:43 AM EST 6:41 PM EST
Moon 11:06 AM EST (12/7) 10:41 PM EST (12/7)
Length of Visible Light 10h 55m
Length of Day
10h 00m
Waxing Crescent, 29% of the Moon is Illuminated
Dec 7
Waxing Crescent
Dec 9
First Quarter
Dec 17
Full
Dec 25
Last Quarter
Jan 1
New

Hourly Weather History & Observations

Time (EST) Temp. Windchill Dew Point Humidity Pressure Visibility Wind Dir Wind Speed Gust Speed Precip Events Conditions
12:15 AM 66.2 °F - 66.2 °F 100% 30.10 in 10.0 mi SSE 3.5 mph - N/A   Clear
12:35 AM 64.4 °F - 64.4 °F 100% 30.10 in 10.0 mi SSE 3.5 mph - N/A   Clear
12:55 AM 66.2 °F - - N/A% 30.09 in 10.0 mi Calm Calm - N/A   Clear
1:15 AM 64.4 °F - - N/A% 30.08 in 10.0 mi Calm Calm - N/A   Clear
1:35 AM 66.2 °F - - N/A% 30.09 in 10.0 mi South 3.5 mph - N/A   Clear
1:55 AM 66.2 °F - - N/A% 30.09 in 10.0 mi Calm Calm - N/A   Clear
2:15 AM 66.2 °F - - N/A% 30.09 in 10.0 mi South 4.6 mph - N/A   Clear
2:35 AM 68.0 °F - 68.0 °F 100% 30.09 in 10.0 mi South 4.6 mph - N/A   Clear
2:55 AM 68.0 °F - 68.0 °F 100% 30.10 in 10.0 mi SSW 3.5 mph - N/A   Clear
3:15 AM 68.0 °F - 68.0 °F 100% 30.10 in 10.0 mi SSW 3.5 mph - N/A   Clear
3:35 AM 68.0 °F - 68.0 °F 100% 30.10 in 10.0 mi South 3.5 mph - N/A   Clear
3:55 AM 66.2 °F - 66.2 °F 100% 30.10 in 10.0 mi Calm Calm - N/A   Clear
4:15 AM 66.2 °F - 66.2 °F 100% 30.10 in 10.0 mi South 3.5 mph - N/A   Clear
4:35 AM 68.0 °F - 68.0 °F 100% 30.10 in 10.0 mi South 3.5 mph - N/A   Clear
4:55 AM 68.0 °F - 68.0 °F 100% 30.10 in 10.0 mi SSW 5.8 mph - N/A   Scattered Clouds
5:15 AM 68.0 °F - 68.0 °F 100% 30.10 in 10.0 mi SSW 6.9 mph - N/A   Scattered Clouds
5:35 AM 68.0 °F - - N/A% 30.11 in 10.0 mi SSW 5.8 mph - N/A   Scattered Clouds
5:55 AM 68.0 °F - - N/A% 30.11 in 10.0 mi SSW 6.9 mph - N/A   Clear
6:15 AM 68.0 °F - - N/A% 30.12 in 10.0 mi SSW 5.8 mph - N/A   Clear
6:35 AM 68.0 °F - - N/A% 30.12 in 10.0 mi SSW 8.1 mph - N/A   Mostly Cloudy
6:55 AM 68.0 °F - - N/A% 30.13 in 10.0 mi SSW 9.2 mph - N/A   Overcast
7:15 AM 68.0 °F - - N/A% 30.13 in 10.0 mi SSW 8.1 mph - N/A   Overcast
7:35 AM 68.0 °F - - N/A% 30.14 in 10.0 mi SSW 8.1 mph - N/A   Overcast
7:55 AM 68.0 °F - - N/A% 30.14 in 10.0 mi SSW 8.1 mph - N/A   Overcast
8:15 AM 68.0 °F - - N/A% 30.15 in 10.0 mi SSW 6.9 mph - N/A   Overcast
8:35 AM 68.0 °F - - N/A% 30.15 in 10.0 mi SSW 8.1 mph - N/A   Overcast
8:55 AM 68.0 °F - 68.0 °F 100% 30.16 in 4.0 mi SSW 6.9 mph - 0.03 in   Overcast
9:15 AM 68.0 °F - 64.4 °F 88% 30.18 in 5.0 mi SW 4.6 mph - 0.01 in   Overcast
9:35 AM 69.8 °F - 69.8 °F 100% 30.18 in 10.0 mi SW 3.5 mph - 0.01 in   Overcast
9:55 AM 69.8 °F - 69.8 °F 100% 30.18 in 10.0 mi Calm Calm - 0.01 in   Overcast
10:15 AM 69.8 °F - 69.8 °F 100% 30.19 in 10.0 mi Calm Calm - N/A   Overcast
10:35 AM 69.8 °F - 69.8 °F 100% 30.20 in 5.0 mi Calm Calm - 0.02 in   Overcast
10:55 AM 69.8 °F - 69.8 °F 100% 30.20 in 7.0 mi WSW 3.5 mph - 0.05 in   Overcast
11:15 AM 69.8 °F - - N/A% 30.20 in 7.0 mi West 4.6 mph - N/A   Overcast
11:35 AM 69.8 °F - - N/A% 30.20 in 1.2 mi West 3.5 mph - N/A   Overcast
11:55 AM 69.8 °F - - N/A% 30.20 in 1.5 mi WNW 3.5 mph - N/A   Overcast
12:15 PM 64.4 °F - 64.4 °F 100% 30.21 in 5.0 mi North 18.4 mph 23.0 mph 0.01 in   Overcast
12:35 PM 59.0 °F - - N/A% 30.22 in 4.0 mi North 11.5 mph - 0.01 in   Overcast
12:55 PM 55.4 °F - 55.4 °F 100% 30.22 in 5.0 mi NNE 8.1 mph - 0.01 in   Overcast
1:15 PM 55.4 °F - 55.4 °F 100% 30.22 in 4.0 mi NE 8.1 mph 18.4 mph 0.01 in   Overcast
1:35 PM 55.4 °F - - N/A% 30.22 in 4.0 mi NNE 8.1 mph - 0.01 in   Overcast
1:55 PM 55.4 °F - - N/A% 30.22 in 7.0 mi NNE 9.2 mph 16.1 mph 0.01 in   Overcast
2:15 PM 55.4 °F - 53.6 °F 94% 30.23 in 10.0 mi NNE 12.7 mph 17.3 mph N/A   Overcast
2:35 PM 53.6 °F - 53.6 °F 100% 30.22 in 10.0 mi NNE 9.2 mph - N/A   Overcast
2:55 PM 53.6 °F - 53.6 °F 100% 30.22 in 10.0 mi NE 9.2 mph 17.3 mph N/A   Overcast
3:15 PM 53.6 °F - 51.8 °F 94% 30.23 in 10.0 mi NNE 9.2 mph - N/A   Overcast
3:35 PM 53.6 °F - 50.0 °F 88% 30.24 in 7.0 mi NNE 9.2 mph 17.3 mph N/A   Overcast
3:55 PM 53.6 °F - 51.8 °F 94% 30.24 in 5.0 mi NNE 6.9 mph - 0.01 in   Overcast
4:15 PM 51.8 °F - 50.0 °F 94% 30.26 in 7.0 mi NNE 8.1 mph - 0.01 in   Overcast
4:35 PM 51.8 °F - 51.8 °F 100% 30.27 in 10.0 mi NNE 9.2 mph - 0.02 in   Overcast
4:55 PM 50.0 °F - 50.0 °F 100% 30.28 in 7.0 mi NE 6.9 mph 16.1 mph 0.05 in   Overcast
5:15 PM 50.0 °F - 50.0 °F 100% 30.28 in 7.0 mi NNE 6.9 mph - N/A   Overcast
5:35 PM 50.0 °F - 50.0 °F 100% 30.29 in 10.0 mi NNE 6.9 mph - N/A   Overcast
5:55 PM 50.0 °F - 50.0 °F 100% 30.30 in 10.0 mi NE 6.9 mph - N/A   Overcast
6:15 PM 50.0 °F - 50.0 °F 100% 30.31 in 10.0 mi NE 11.5 mph 17.3 mph N/A   Overcast
6:35 PM 50.0 °F - 50.0 °F 100% 30.31 in 7.0 mi NNE 8.1 mph - N/A   Overcast
6:55 PM 50.0 °F - 50.0 °F 100% 30.32 in 10.0 mi NE 6.9 mph - N/A   Overcast
7:15 PM 48.2 °F - 48.2 °F 100% 30.34 in 10.0 mi NE 6.9 mph - N/A   Overcast
7:35 PM 48.2 °F - 48.2 °F 100% 30.32 in 10.0 mi NE 10.4 mph - N/A   Overcast
7:55 PM 48.2 °F - 48.2 °F 100% 30.34 in 7.0 mi NE 5.8 mph - N/A   Overcast
8:15 PM 48.2 °F - 48.2 °F 100% 30.35 in 10.0 mi NE 6.9 mph - N/A   Overcast
8:35 PM 48.2 °F - 48.2 °F 100% 30.35 in 7.0 mi NNE 5.8 mph - N/A   Overcast
8:55 PM 46.4 °F 41.1 °F 46.4 °F 100% 30.36 in 5.0 mi NE 11.5 mph 19.6 mph N/A   Overcast
9:15 PM 46.4 °F 41.5 °F 46.4 °F 100% 30.37 in 4.0 mi NE 10.4 mph 16.1 mph N/A   Overcast
9:35 PM 46.4 °F 44.3 °F 46.4 °F 100% 30.37 in 2.0 mi NNE 4.6 mph - 0.12 in   Overcast
9:55 PM 46.4 °F 42.4 °F 46.4 °F 100% 30.37 in 7.0 mi NE 8.1 mph - 0.12 in   Overcast
10:15 PM 46.4 °F 42.9 °F 46.4 °F 100% 30.37 in 4.0 mi ENE 6.9 mph - 0.03 in   Overcast
10:35 PM 46.4 °F 45.2 °F 46.4 °F 100% 30.37 in 3.0 mi ENE 3.5 mph - 0.06 in   Overcast
10:55 PM 46.4 °F 42.9 °F - N/A% 30.37 in 4.0 mi NE 6.9 mph - 0.08 in   Overcast
11:15 PM 46.4 °F 44.3 °F 46.4 °F 100% 30.37 in 5.0 mi NE 4.6 mph - N/A   Overcast
11:35 PM 44.6 °F 43.1 °F 44.6 °F 100% 30.38 in 7.0 mi NNE 3.5 mph - 0.01 in   Overcast
11:55 PM 44.6 °F 41.4 °F 44.6 °F 100% 30.37 in 7.0 mi NNE 5.8 mph - 0.01 in   Overcast